Location: Newark
(34.9471°N, 136.1778°E)
Time: 00:41:50
(UTC+00:00)

METEOR M2 - Pass Details

Date: 29 February 2020
Orbit: 818 x 828 km, 98.5° (Epoch: 31 March)

Event Time Altitude Azimuth Distance (km) Brightness Sun altitude
Exits shadow 09:10:39 - 113° (ESE) 3,207 ? -5.0°
Reaches altitude 10° 09:13:48 10° 90° (E) 2,429 ? -5.6°
Maximum altitude 09:16:14 13° 63° (ENE) 2,208 ? -6.1°
Drops below altitude 10° 09:18:39 10° 36° (NE) 2,435 ? -6.6°
Sets 09:22:18 0° 10° (N) 3,373 ? -7.4°
